Weather History for KL35 - June, 2013

Change the Weather History Date:

Friday, June 21, 2013

  Actual Average (KBUO) Record (KBUO)
Temperature  
Mean Temperature 57 °F -  
Max Temperature 73 °F 85 °F 93 °F (2000)
Min Temperature 41 °F 55 °F 51 °F (1998)
Degree Days  
Heating Degree Days 8    
Growing Degree Days 7 (Base 50)    
Moisture  
Dew Point 26 °F    
Average Humidity 33    
Maximum Humidity 61    
Minimum Humidity 11    
Precipitation  
Precipitation 0.00 in - - ()
Sea Level Pressure  
Sea Level Pressure 30.12 in    
Wind  
Wind Speed 3 mph (WSW)    
Max Wind Speed 14 mph    
Max Gust Speed 17 mph    
Visibility 10 miles    
Events      
Averages and records for this station are not official NWS values.
T = Trace of Precipitation, MM = Missing Value Source: NWS Daily Summary

Daily Weather History Graph

Daily Weather History Graph

Search for Another Location

Airport or City:

Trip Planner

Search our weather history database for the weather conditions in past years. The results will help you decide how hot, cold, wet, or windy it might be!

Date:

Astronomy

Jun. 21, 2013 Rise Set
Actual Time 5:35 AM PDT 8:02 PM PDT
Civil Twilight 5:06 AM PDT 8:32 PM PDT
Nautical Twilight 4:30 AM PDT 9:08 PM PDT
Astronomical Twilight 3:50 AM PDT 9:47 PM PDT
Moon 6:21 PM PDT (6/21) 3:51 AM PDT (6/21)
Length of Visible Light 15h 25m
Length of Day
14h 26m
Waxing Gibbous, 96% of the Moon is Illuminated
Jun 21
Waxing Gibbous
Jun 23
Full
Jun 29
Last Quarter
Jul 8
New
Jul 15
First Quarter

Hourly Weather History & Observations

Time (PDT) Temp. Windchill Dew Point Humidity Pressure Visibility Wind Dir Wind Speed Gust Speed Precip Events Conditions
12:15 AM 46.4 °F - 30.2 °F 53% 30.12 in 10.0 mi Calm Calm - N/A   Clear
12:35 AM 46.4 °F - 28.4 °F 50% 30.11 in 10.0 mi Calm Calm - N/A   Clear
12:55 AM 46.4 °F - 26.6 °F 46% 30.10 in 10.0 mi Calm Calm - N/A   Clear
1:15 AM 46.4 °F - 24.8 °F 43% 30.10 in 10.0 mi Calm Calm - N/A   Clear
1:35 AM 46.4 °F - 24.8 °F 43% 30.09 in 10.0 mi Calm Calm - N/A   Clear
1:55 AM 46.4 °F - 26.6 °F 46% 30.09 in 10.0 mi Calm Calm - N/A   Clear
2:15 AM 46.4 °F - 26.6 °F 46% 30.09 in 10.0 mi Calm Calm - N/A   Clear
2:35 AM 46.4 °F 45.2 °F 26.6 °F 46% 30.09 in 10.0 mi SW 3.5 mph - N/A   Clear
2:55 AM 46.4 °F 45.2 °F 28.4 °F 50% 30.09 in 10.0 mi SSW 3.5 mph - N/A   Clear
3:15 AM 46.4 °F 44.3 °F 28.4 °F 50% 30.09 in 10.0 mi WSW 4.6 mph - N/A   Clear
3:35 AM 46.4 °F 45.2 °F 30.2 °F 53% 30.08 in 10.0 mi WSW 3.5 mph - N/A   Clear
3:55 AM 44.6 °F - 28.4 °F 53% 30.08 in 10.0 mi Calm Calm - N/A   Clear
4:15 AM 44.6 °F - 28.4 °F 53% 30.08 in 10.0 mi Calm Calm - N/A   Clear
4:35 AM 42.8 °F - 26.6 °F 53% 30.08 in 10.0 mi Calm Calm - N/A   Clear
4:55 AM 42.8 °F - 30.2 °F 61% 30.08 in 10.0 mi Calm Calm - N/A   Clear
5:15 AM 42.8 °F - 30.2 °F 61% 30.08 in 10.0 mi Calm Calm - N/A   Clear
5:35 AM 42.8 °F - 30.2 °F 61% 30.09 in 10.0 mi Calm Calm - N/A   Clear
5:55 AM 41.0 °F - 28.4 °F 61% 30.09 in 10.0 mi Calm Calm - N/A   Clear
6:15 AM 42.8 °F - 28.4 °F 57% 30.09 in 10.0 mi Calm Calm - N/A   Clear
6:35 AM 44.6 °F 43.1 °F 30.2 °F 57% 30.09 in 10.0 mi West 3.5 mph - N/A   Clear
6:55 AM 50.0 °F - 33.8 °F 54% 30.09 in 10.0 mi Calm Calm - N/A   Clear
7:15 AM 53.6 °F - 33.8 °F 47% 30.10 in 10.0 mi Calm Calm - N/A   Clear
7:35 AM 59.0 °F - 30.2 °F 34% 30.11 in 10.0 mi West 6.9 mph - N/A   Clear
7:55 AM 59.0 °F - 28.4 °F 31% 30.11 in 10.0 mi West 3.5 mph - N/A   Clear
8:15 AM 62.6 °F - 23.0 °F 22% 30.11 in 10.0 mi West 6.9 mph - N/A   Clear
8:35 AM 64.4 °F - 15.8 °F 15% 30.11 in 10.0 mi West 5.8 mph - N/A   Clear
8:55 AM 64.4 °F - 8.6 °F 11% 30.12 in 10.0 mi West 6.9 mph - N/A   Clear
9:15 AM 66.2 °F - 14.0 °F 13% 30.12 in 10.0 mi West 8.1 mph - N/A   Clear
9:35 AM 68.0 °F - 17.6 °F 15% 30.12 in 10.0 mi West 9.2 mph - N/A   Clear
9:55 AM 68.0 °F - 19.4 °F 16% 30.12 in 10.0 mi West 8.1 mph - N/A   Clear
10:15 AM 69.8 °F - 21.2 °F 16% 30.12 in 10.0 mi West 5.8 mph - N/A   Clear
10:35 AM 69.8 °F - 21.2 °F 16% 30.12 in 10.0 mi West 9.2 mph - N/A   Clear
10:55 AM 71.6 °F - 21.2 °F 15% 30.12 in 10.0 mi West 9.2 mph - N/A   Clear
11:15 AM 71.6 °F - 21.2 °F 15% 30.12 in 10.0 mi West 9.2 mph - N/A   Clear
11:35 AM 69.8 °F - 23.0 °F 17% 30.13 in 10.0 mi West 12.7 mph - N/A   Clear
11:55 AM 71.6 °F - 26.6 °F 19% 30.13 in 10.0 mi West 13.8 mph - N/A   Clear
12:15 PM 71.6 °F - 26.6 °F 19% 30.14 in 10.0 mi West 12.7 mph - N/A   Clear
12:35 PM 71.6 °F - 26.6 °F 19% 30.14 in 10.0 mi WSW 9.2 mph - N/A   Clear
12:55 PM 73.4 °F - 28.4 °F 19% 30.14 in 10.0 mi West 10.4 mph - N/A   Clear
1:15 PM 73.4 °F - 26.6 °F 18% 30.14 in 10.0 mi West 12.7 mph - N/A   Clear
1:35 PM 73.4 °F - 26.6 °F 18% 30.14 in 10.0 mi West 9.2 mph - N/A   Clear
1:55 PM 73.4 °F - 21.2 °F 14% 30.14 in 10.0 mi West 10.4 mph - N/A   Clear
2:15 PM 73.4 °F - 21.2 °F 14% 30.14 in 10.0 mi SW 8.1 mph 16.1 mph N/A   Clear
2:35 PM 73.4 °F - 21.2 °F 14% 30.13 in 10.0 mi West 10.4 mph - N/A   Clear
2:55 PM 73.4 °F - 21.2 °F 14% 30.13 in 10.0 mi West 12.7 mph 16.1 mph N/A   Clear
3:15 PM 73.4 °F - 19.4 °F 13% 30.13 in 10.0 mi West 8.1 mph 16.1 mph N/A   Clear
3:35 PM 73.4 °F - 15.8 °F 11% 30.13 in 10.0 mi SW 5.8 mph - N/A   Clear
3:55 PM 71.6 °F - 17.6 °F 13% 30.14 in 10.0 mi Calm Calm - N/A   Clear
4:15 PM 71.6 °F - 17.6 °F 13% 30.13 in 10.0 mi WSW 9.2 mph - N/A   Clear
4:35 PM 71.6 °F - 21.2 °F 15% 30.13 in 10.0 mi West 10.4 mph - N/A   Clear
4:55 PM 71.6 °F - 26.6 °F 19% 30.13 in 10.0 mi West 10.4 mph - N/A   Clear
5:15 PM 69.8 °F - 19.4 °F 15% 30.12 in 10.0 mi WSW 8.1 mph - N/A   Clear
5:35 PM 69.8 °F - 19.4 °F 15% 30.12 in 10.0 mi SSW 6.9 mph 17.3 mph N/A   Clear
5:55 PM 69.8 °F - 26.6 °F 20% 30.12 in 10.0 mi West 10.4 mph 16.1 mph N/A   Clear
6:15 PM 68.0 °F - 28.4 °F 23% 30.12 in 10.0 mi West 12.7 mph - N/A   Clear
6:35 PM 66.2 °F - 30.2 °F 26% 30.12 in 10.0 mi West 8.1 mph - N/A   Clear
6:55 PM 66.2 °F - 32.0 °F 28% 30.12 in 10.0 mi West 8.1 mph - N/A   Clear
7:15 PM 64.4 °F - 32.0 °F 30% 30.12 in 10.0 mi West 6.9 mph - N/A   Clear
7:35 PM 62.6 °F - 32.0 °F 32% 30.12 in 10.0 mi West 5.8 mph - N/A   Clear
7:55 PM 60.8 °F - 33.8 °F 36% 30.11 in 10.0 mi West 5.8 mph - N/A   Clear
8:15 PM 60.8 °F - 33.8 °F 36% 30.12 in 10.0 mi Calm Calm - N/A   Clear
8:35 PM 59.0 °F - 33.8 °F 39% 30.12 in 10.0 mi Calm Calm - N/A   Clear
8:55 PM 59.0 °F - 32.0 °F 36% 30.12 in 10.0 mi Calm Calm - N/A   Clear
9:15 PM 55.4 °F - 28.4 °F 36% 30.12 in 10.0 mi Calm Calm - N/A   Clear
9:35 PM 53.6 °F - 30.2 °F 41% 30.13 in 10.0 mi Calm Calm - N/A   Clear
9:55 PM 51.8 °F - 26.6 °F 38% 30.13 in 10.0 mi Calm Calm - N/A   Clear
10:15 PM 50.0 °F - 28.4 °F 43% 30.14 in 10.0 mi Calm Calm - N/A   Clear
10:35 PM 50.0 °F - 28.4 °F 43% 30.14 in 10.0 mi Calm Calm - N/A   Clear
10:55 PM 48.2 °F - 28.4 °F 46% 30.14 in 10.0 mi Calm Calm - N/A   Clear
11:15 PM 48.2 °F - 28.4 °F 46% 30.13 in 10.0 mi Calm Calm - N/A   Clear
11:35 PM 46.4 °F - 30.2 °F 53% 30.13 in 10.0 mi Calm Calm - N/A   Clear
11:55 PM 46.4 °F - 30.2 °F 53% 30.13 in 10.0 mi Calm Calm - N/A   Clear